{"data":{"norad_id":66797,"epoch":"2026-05-25T02:11:07.983168Z","epoch_age_seconds":57443,"freshness":"FRESH","line1":"1 66797U 25278G   26145.09106462  .00016809  00000+0  61867-3 0  9999","line2":"2 66797  43.0032  42.9005 0001273 271.7346  88.3359 15.27595304 26894","mean_motion":15.27595304,"eccentricity":0.0001273,"inclination_deg":43.0032,"raan_deg":42.9005,"arg_perigee_deg":271.7346,"mean_anomaly_deg":88.3359,"bstar":0.00061867,"rev_number":2689,"period_min":94.265804315408,"perigee_km":482.12984758418,"apogee_km":483.87669389711,"semimajor_km":6861.1402707406,"source":"CELESTRAK","updated_at":"2026-05-25T13:38:21.327195Z"}}